Showing default

COSMOS 2557 (GLONASS), 52984

Orbit data source: Space-Track

COSMOS 2557 (GLONASS), 52984 is a Commonwealth of Independent States-origin payload satellite in MEO that was launched on Thu, 07 Jul 2022 UTC via a SOYUZ-2-1B launch vehicle from the Plesetsk Missile And Space Complex (PKMTR). Payload-class satellites include a variety of spacecraft equipped with specific instruments for various scientific and technological missions. These include communications satellites like Starlink; space stations such as the ISS; scientific satellites like the Hubble; Earth observation satellites from companies like Planet Labs, Umbra, and HawkEye 360; GPS; miniature CubeSats for education and research; and military/defense satellites.

Loading next visibility...
Identifier
52984, 2022-075A
Orbit
MEO
Country
Flag of CISCIS
Related business
Manufacturer
Resehetnev ISS
Mission
Operational Defense Navigation
Bus & Motor
EKSPRESS-1000, AOCS
Mass
974 kg wet, ~800 kg dry
Launch date (UTC)
2022-07-07 (4 years ago)
Launch vehicle
SOYUZ-2-1B
Launch site
Plesetsk Missile And Space Complex (PKMTR)
Object type
Payload
Rocket body
Debris
Shape & HBR
Box + 2 Pan, 2.5 m
Radar Cross Section
3.585 m², Large (>1 m²)

Expand to show TLE details & history
Last TLE update: 2 days ago

TLE from 2 days ago
0 COSMOS 2557 (GLONASS)
1 52984U 22075A   26171.86302699 -.00000067  00000-0  00000+0 0  9997
2 52984  64.2965 314.3556 0010286 273.9736  85.9018  2.13102004 30796
Epoch: 2026-06-20T20:42Z
TLE epoch observation values (Epoch: 2026-06-20T20:42:45.531Z)
Latitude
-0.00003°
Longitude
94.5804°
Altitude
19,128.574 km
Speed
3.953 km/s
True Right ascension
20h 57m 21s
True Declination
0° 00' 00"
Sunlit
Object was in daylight at epoch
Visualization orbit readout
Latitude
Unknown
Longitude
Unknown
Altitude
Unknown
Speed
Unknown
Apparent Right ascension
Unknown
Apparent Declination
Unknown
Sunlit
N/A
Visualization observer readout
Local Sidereal Time
23:09:17
Azimuth
Unknown
Elevation
Unknown
Doppler factor
Unknown
Orbital elements
Apogee altitude
19,155.764 km
Perigee altitude
19,103.289 km
Semi-major axis
25,507.664 km
Eccentricity
0.00103
Inclination
64.2965°
RAAN
314.3556°
Arg. of periapsis
273.9736°
True anomaly
86.01938°
Mean anomaly
85.9018°
Eccentric anomaly
85.96059°
Mean motion
0.53277 °/min
Orbital period
675.72 mins
BSTAR
0
Loading maneuver chart data...
Computing Atmospheric mass density...
Loading historical data...
Loading historical data...
Loading historical data...
Loading historical data...
Loading historical data...
Loading historical data...
Loading historical data...
Other satellites on launch #75 in the year 2022 (2022-07-07 UTC)

Documentation

Showing up to 5 results
|